Search your local weather  

 
Advertise Here

Hazardous Weather Conditions

No active alerts for LOS ANGELES, CALIFORNIA

Current Conditions: LOS ANGELES, CALIFORNIA

Overcast


66.0 F

Last Updated on Jul 26 2021, 8:51 pm PDT
Humidity: 84%
Wind Speed: 4.6 mph
Barometer 29.96 in
Dewpoint: 61.0 F
Visibility: 10.00 mi
Precip: --
Heat Index: NA
Wind Chill: NA
Current conditions at:

Santa Monica, Santa Monica Municipal Airport, CA (KSMO)

Lat: 34.01583 Lon: -118.45139

Local Radar Image active severe weather and emergency alerts image image weather storm and storm spotter reports image weather observation monitoring service image
Local
Radar
Active
Alerts
Storm Reports Weather
Monitoring

5 Day Forecast for LOS ANGELES, CALIFORNIA (90001)

Monday

Chance of T-storms

High 83 °F
Monday
Night
Partly Cloudy

Low 68 °F
Tuesday

Mostly Sunny

High 85 °F
Tuesday
Night
Mostly Clear

Low 68 °F
Wednesday

Mostly Sunny

High 86 °F
Wednesday
Night
Mostly Clear

Low 67 °F
Thursday

Mostly Sunny

High 84 °F
Thursday
Night
Overnight Fog
Low 67 °F
Friday

Partly Sunny

High 84 °F

Sign-up For Email & Text Message Weather Alert Notification Services


Advertise Here

Observation History for LOS ANGELES, CALIFORNIA


Time Wind
(mph)
Vis
(mi)
Weather Precip (in) Temperature (F) Relative
Humidity
Wind
Chill
(F)
Heat
Index
(F)
Pressure
Air Dwpt altimeter
(in)
sea level
(mb)
8:51 pm PDT 4.6 10.00 Overcast -- 66.0 61.0 84% NA NA 29.96 1014.3
7:51 pm PDT SW 5.8 10.00 Overcast -- 66.0 61.0 84% NA NA 29.95 1013.9
6:51 pm PDT SW 5.8 10.00 Fair -- 68.0 61.0 78% NA NA 29.93 1013.3
5:51 pm PDT SW 6.9 10.00 Fair -- 70.0 61.0 73% NA NA 29.93 1013.3
4:51 pm PDT SW 9.2 10.00 Fair -- 70.0 62.1 76% NA NA 29.94 1013.7
3:51 pm PDT SW 10.4 10.00 Fair -- 69.0 61.0 76% NA NA 29.94 1013.7
2:51 pm PDT W 10.4 10.00 Overcast -- 69.0 61.0 76% NA NA 29.95 1014.0
1:51 pm PDT W 9.2 G 16.1 10.00 Overcast -- 68.0 61.0 78% NA NA 29.95 1014.0
12:51 pm PDT W 10.4 10.00 Partly Cloudy -- 68.0 61.0 78% NA NA 29.96 1014.3
11:51 am PDT SW 6.9 10.00 Overcast -- 68.0 62.1 81% NA NA 29.95 1013.8
10:51 am PDT SW 5.8 10.00 Overcast -- 69.0 63.0 81% NA NA 29.94 1013.8
9:51 am PDT N 0.0 10.00 A Few Clouds -- 73.0 64.0 74% NA NA 29.94 1013.8
8:51 am PDT N 4.6 8.00 Overcast -- 69.0 64.0 84% NA NA 29.94 1013.8
7:51 am PDT E 3.5 8.00 Overcast -- 67.0 64.0 91% NA NA 29.96 1014.4
6:51 am PDT N 0.0 7.00 Mostly Cloudy -- 66.0 64.0 93% NA NA 29.95 1014.1
5:51 am PDT S 6.9 10.00 Mostly Cloudy 00.01 65.0 63.0 93% NA NA 29.91 1012.8
4:51 am PDT W 3.5 6.00 Light Rain Fog/Mist 00.09 66.0 64.0 93% NA NA 29.90 1012.3
3:51 am PDT N 3.5 10.00 Light Rain Trace 66.0 62.1 87% NA NA 29.95 1014.0
2:51 am PDT N 0.0 10.00 Mostly Cloudy Trace 65.0 61.0 87% NA NA 29.96 1014.3
1:51 am PDT 3.5 10.00 Mostly Cloudy -- 65.0 61.0 87% NA NA 29.93 1013.2
12:51 am PDT S 3.5 10.00 Fair -- 65.0 61.0 87% NA NA 29.94 1013.6
11:51 pm PDT W 3.5 10.00 Fair -- 65.0 61.0 87% NA NA 29.93 1013.4
10:51 pm PDT SW 4.6 10.00 Fair -- 66.0 60.1 81% NA NA 29.95 1013.9
9:51 pm PDT SW 5.8 10.00 Overcast -- 66.0 60.1 81% NA NA 29.95 1013.9

Regional Weather Observation

Los Angeles / USC Campus Downtown, CA (KCQT)

A Few Clouds
68.0 F

Burbank - Bob Hope Airport, CA (KBUR)

Fair
67.0 F

Van Nuys, Van Nuys Airport, CA (KVNY)

Fair
70.0 F

Los Angeles, Whiteman Airport, CA (KWHP)

Clear
72.0 F

Los Angeles, Los Angeles International Airport, CA (KLAX)

Mostly Cloudy
65.0 F

Hawthorne, Hawthorne Municipal Airport, CA (KHHR)

A Few Clouds
67.0 F
Advertise Here

Advertise Here